Date String (YYYY-MM-DD hh:mm:ss) UTC,Instrument flags,absolute air pressure of the measurement (hPa),sample flow rate (lpm),inlet stack bypass flow (lpm),air temperature of the measurement (°C),ambient temperature measured by the external sensor (°C),aerosol sample conditioner tube jacket temperature (°C),OPC LED temperature (°C),internal box temperature (°C),relative humidity of the measurement (%),span deviation,mass concentration of particles derived from Lorenz-Mie calculation of OPC scattering (μg/m³),mass concentration of particles derived from Lorenz-Mie calculation of OPC scattering (μg/m³),mass concentration of particles derived from Lorenz-Mie calculation of OPC scattering (μg/m³)
DateTimeUTC,F1_M11,P_M11,Q1_M11,Q2_M11,T1_M11,T2_M11,T3_M11,T4_M11,T5_M11,U1_M11,ZSPAN_M11,X0_M11,X2_M11,X1_M11
2023-06-26 08:00:00,SystemResetWarning,0831.7,5.01,000.00,029.8,028.2,000.0,038.4,031.4,29.6,0000.0,0017.03,0005.77,0004.64
2023-06-26 08:01:00,SystemResetWarning,0831.7,5.01,000.00,029.9,028.3,000.0,038.4,031.4,29.1,0000.0,0016.58,0005.78,0004.63
2023-06-26 08:02:00,SystemResetWarning,0831.7,5.00,000.00,029.9,028.3,000.0,038.4,031.4,28.8,0000.0,0016.72,0005.80,0004.64
2023-06-26 08:03:00,SystemResetWarning,0831.7,4.99,000.00,029.9,028.4,000.0,038.4,031.4,28.5,0000.0,0016.51,0005.80,0004.64
2023-06-26 08:04:00,SystemResetWarning,0831.7,5.00,000.00,029.9,028.4,000.0,038.4,031.5,28.6,0000.0,0015.83,0005.83,0004.63
2023-06-26 08:05:00,SystemResetWarning,0832.1,4.99,000.00,029.9,028.5,000.0,038.4,031.5,28.5,0000.0,0016.16,0005.83,0004.60
2023-06-26 08:06:00,SystemResetWarning,0832.0,5.00,000.00,030.0,028.5,000.0,038.4,031.5,28.5,0000.0,0015.46,0005.81,0004.57
2023-06-26 08:07:00,SystemResetWarning,0832.0,5.00,000.00,030.0,028.5,000.0,038.5,031.5,29.0,0000.0,0015.29,0005.77,0004.56
2023-06-26 08:08:00,SystemResetWarning,0831.8,5.00,000.00,030.0,028.6,000.0,038.5,031.5,29.1,0000.0,0015.47,0005.72,0004.54
2023-06-26 08:09:00,SystemResetWarning,0831.7,5.01,000.00,030.0,028.6,000.0,038.5,031.5,29.7,0000.0,0014.45,0005.65,0004.52
2023-06-26 08:10:00,SystemResetWarning,0831.7,4.99,000.00,030.1,028.7,000.0,038.5,031.5,29.4,0000.0,0013.25,0005.60,0004.50
2023-06-26 08:11:00,SystemResetWarning,0831.7,5.00,000.00,030.1,028.7,000.0,038.5,031.6,29.4,0000.0,0013.08,0005.56,0004.48
2023-06-26 08:12:00,SystemResetWarning,0831.7,5.00,000.00,030.1,028.7,000.0,038.6,031.7,29.4,0000.0,0013.15,0005.55,0004.46
2023-06-26 08:13:00,SystemResetWarning,0831.7,5.00,000.00,030.1,028.7,000.0,038.6,031.7,29.9,0000.0,0013.06,0005.49,0004.44
2023-06-26 08:14:00,SystemResetWarning,0831.7,4.99,000.00,030.1,028.8,000.0,038.6,031.7,29.8,0000.0,0012.71,0005.45,0004.43
2023-06-26 08:15:00,SystemResetWarning,0831.7,5.00,000.00,030.2,028.8,000.0,038.6,031.7,29.3,0000.0,0012.97,0005.43,0004.43
2023-06-26 08:16:00,SystemResetWarning,0831.7,4.99,000.00,030.2,028.5,000.0,038.6,031.7,28.6,0000.0,0013.31,0005.42,0004.44
2023-06-26 08:17:00,SystemResetWarning,0831.6,5.00,000.00,030.2,026.2,000.0,038.6,031.7,28.7,0000.0,0013.12,0005.43,0004.45
2023-06-26 08:18:00,SystemResetWarning,0831.6,5.01,000.00,030.2,024.9,000.0,038.5,031.7,29.1,0000.0,0013.14,0005.45,0004.46
2023-06-26 08:19:00,SystemResetWarning,0831.6,5.01,000.00,030.0,024.9,000.0,038.5,031.3,29.7,0000.3,0013.35,0005.49,0004.49
2023-06-26 08:20:00,SystemResetWarning,0831.6,5.00,000.00,029.9,025.3,000.0,038.5,031.1,29.8,0003.7,0014.28,0005.53,0004.51
2023-06-26 08:21:00,SystemResetWarning,0831.6,5.01,000.00,029.9,025.8,000.0,038.5,031.0,29.7,0000.0,0014.77,0005.55,0004.52
2023-06-26 08:22:00,SystemResetWarning,0831.5,5.00,000.00,029.8,026.2,000.0,038.5,031.1,29.9,0001.1,0014.79,0005.54,0004.53
2023-06-26 08:23:00,SystemResetWarning,0831.6,5.00,000.00,029.8,026.6,000.0,038.4,031.1,30.2,0003.8,0015.88,0005.57,0004.53
2023-06-26 08:24:00,SystemResetWarning,0831.6,5.00,000.00,029.8,027.0,000.0,038.4,031.1,30.5,0003.6,0016.12,0005.56,0004.55
2023-06-26 08:25:00,SystemResetWarning,0831.5,5.00,000.00,029.8,027.2,000.0,038.4,031.2,30.6,0003.4,0016.55,0005.62,0004.55
2023-06-26 08:26:00,SystemResetWarning,0831.5,5.00,000.00,029.8,027.5,000.0,038.4,031.2,30.5,0003.0,0016.38,0005.62,0004.53
2023-06-26 08:27:00,SystemResetWarning,0831.5,5.00,000.00,029.8,027.7,000.0,038.4,031.2,30.5,0003.4,0015.72,0005.62,0004.52
2023-06-26 08:28:00,SystemResetWarning,0831.5,5.00,000.00,029.8,027.8,000.0,038.4,031.2,30.5,0002.8,0015.54,0005.60,0004.52
2023-06-26 08:29:00,SystemResetWarning,0831.5,5.00,000.00,029.8,027.9,000.0,038.4,031.3,30.3,0002.7,0016.29,0005.64,0004.52
2023-06-26 08:30:00,SystemResetWarning,0831.4,5.01,000.00,029.8,028.0,000.0,038.4,031.3,30.2,0002.7,0016.04,0005.65,0004.52
2023-06-26 08:31:00,SystemResetWarning,0831.4,5.00,000.00,029.8,028.1,000.0,038.4,031.3,30.2,0002.8,0015.40,0005.64,0004.51
2023-06-26 08:32:00,SystemResetWarning,0831.5,5.01,000.00,029.9,028.2,000.0,038.4,031.4,30.2,0003.4,0014.82,0005.62,0004.51
2023-06-26 08:33:00,SystemResetWarning,0831.4,5.00,000.00,029.9,028.3,000.0,038.4,031.4,30.1,0003.8,0015.01,0005.63,0004.51
2023-06-26 08:34:00,SystemResetWarning,0831.4,5.00,000.00,029.9,028.3,000.0,038.4,031.4,30.2,0003.8,0014.08,0005.59,0004.52
2023-06-26 08:35:00,SystemResetWarning,0831.4,5.00,000.00,029.9,028.4,000.0,038.4,031.4,30.2,0004.0,0013.37,0005.60,0004.52
2023-06-26 08:36:00,SystemResetWarning,0831.4,5.00,000.00,029.9,028.4,000.0,038.5,031.5,30.0,0000.5,0013.45,0005.61,0004.53
2023-06-26 08:37:00,SystemResetWarning,0831.4,5.00,000.00,030.0,028.5,000.0,038.5,031.5,29.6,0000.8,0013.95,0005.63,0004.56
2023-06-26 08:38:00,SystemResetWarning,0831.4,4.99,000.00,030.0,028.5,000.0,038.5,031.5,29.6,0002.5,0013.68,0005.61,0004.58
2023-06-26 08:39:00,SystemResetWarning,0831.5,5.01,000.00,030.0,028.6,000.0,038.5,031.5,29.7,0000.2,0013.63,0005.62,0004.60
2023-06-26 08:40:00,SystemResetWarning,0831.5,5.01,000.00,030.0,028.6,000.0,038.5,031.6,29.7,0000.0,0013.98,0005.62,0004.60
2023-06-26 08:41:00,SystemResetWarning,0831.4,5.00,000.00,030.1,028.6,000.0,038.5,031.6,29.6,0000.0,0013.85,0005.59,0004.59
2023-06-26 08:42:00,SystemResetWarning,0831.4,4.99,000.00,030.1,028.7,000.0,038.6,031.6,29.6,0000.0,0013.85,0005.60,0004.58
2023-06-26 08:43:00,SystemResetWarning,0831.5,4.99,000.00,030.1,028.7,000.0,038.6,031.6,29.5,0000.0,0013.79,0005.61,0004.60
2023-06-26 08:44:00,SystemResetWarning,0831.4,4.99,000.00,030.1,028.7,000.0,038.6,031.7,29.5,0000.0,0013.61,0005.58,0004.59
2023-06-26 08:45:00,SystemResetWarning,0831.4,5.00,000.00,030.1,028.7,000.0,038.6,031.7,29.4,0000.0,0013.86,0005.55,0004.57
2023-06-26 08:46:00,SystemResetWarning,0831.5,5.01,000.00,030.2,028.8,000.0,038.6,031.7,29.4,0000.0,0013.96,0005.57,0004.57
2023-06-26 08:47:00,SystemResetWarning,0831.5,5.01,000.00,030.2,028.8,000.0,038.7,031.7,29.2,0000.0,0013.68,0005.58,0004.56
2023-06-26 08:48:00,SystemResetWarning,0831.4,4.99,000.00,030.2,028.8,000.0,038.7,031.7,28.9,0000.0,0013.42,0005.55,0004.54
2023-06-26 08:49:00,SystemResetWarning,0831.4,5.00,000.00,030.2,028.8,000.0,038.7,031.8,29.0,0000.0,0014.20,0005.57,0004.52
2023-06-26 08:50:00,SystemResetWarning,0831.4,4.99,000.00,030.2,027.7,000.0,038.7,031.8,28.9,0000.0,0015.00,0005.56,0004.49
2023-06-26 08:51:00,SystemResetWarning,0831.4,5.01,000.00,030.2,025.4,000.0,038.6,031.8,29.0,0000.0,0014.56,0005.56,0004.48
2023-06-26 08:52:00,SystemResetWarning,0831.3,5.01,000.00,030.2,024.8,000.0,038.5,031.6,29.0,0000.0,0014.83,0005.54,0004.48
2023-06-26 08:53:00,SystemResetWarning,0831.4,5.01,000.00,030.0,025.0,000.0,038.5,031.2,29.3,0000.0,0015.00,0005.52,0004.46
2023-06-26 08:54:00,SystemResetWarning,0831.4,5.00,000.00,029.9,025.5,000.0,038.5,031.1,29.5,0000.0,0016.10,0005.52,0004.45
2023-06-26 08:55:00,SystemResetWarning,0831.4,5.00,000.00,029.9,025.9,000.0,038.5,031.1,29.7,0000.0,0016.19,0005.55,0004.44
2023-06-26 08:56:00,SystemResetWarning,0831.4,5.01,000.00,029.8,026.4,000.0,038.5,031.1,29.7,0000.0,0015.90,0005.62,0004.44
2023-06-26 08:57:00,SystemResetWarning,0831.3,5.00,000.00,029.8,026.7,000.0,038.5,031.2,29.8,0000.0,0015.75,0005.64,0004.43
2023-06-26 08:58:00,SystemResetWarning,0831.4,5.00,000.00,029.8,027.1,000.0,038.5,031.2,29.8,0000.0,0016.00,0005.64,0004.43
2023-06-26 08:59:00,SystemResetWarning,0831.3,5.00,000.00,029.8,027.3,000.0,038.5,031.2,29.8,0000.0,0016.38,0005.69,0004.43
